Location: Lamoine Observatory
(44.4551°N, 68.3470°W)
Time: 11:09:00
(UTC-04:00)

Daily predictions for brighter satellites

Satellite Brightness Start Highest point End
(mag) Time Altitude Azimuth Time Altitude Azimuth Time Altitude Azimuth
Cosmos 2297 4.3 18:31:55 10° NNW 18:37:31 64° WSW 18:43:04 10° S
Cosmos 1452 Rocket 3.6 18:33:24 10° NNW 18:38:38 62° ENE 18:43:49 10° SSE
COSMOS 2441 4.4 18:33:50 10° SSE 18:38:42 86° ENE 18:43:33 10° NNW
Okean 3 Rocket 3.9 18:34:52 10° N 18:39:26 79° W 18:43:58 10° S
Cosmos 2369 Rocket 3.3 18:38:43 10° N 18:43:26 26° NE 18:48:10 10° ESE
CENTAUR R/B 3.6 18:39:28 10° SSE 18:43:50 21° ESE 18:48:32 10° ENE
SAR-Lupe-1 4.3 18:41:29 10° SSE 18:44:55 48° ENE 18:48:22 10° N
SL-19 R/B 4.4 18:40:39 10° SSE 18:46:19 77° ENE 18:52:24 10° NNW
Cosmos 1805 3.9 18:43:47 10° SSE 18:47:21 35° E 18:50:58 10° NNE
Cosmos 1943 4.5 18:43:45 10° SE 18:47:23 18° E 18:51:02 10° ENE
ALOS 3.6 18:44:02 10° ESE 18:47:25 20° ENE 18:50:49 10° NNE
Cosmos 192 4.3 18:43:17 10° SSW 18:48:14 79° ESE 18:53:14 10° NNE
SL-8 R/B 4.3 18:47:10 10° SSW 18:51:37 40° SE 18:56:04 10° ENE
Helios 1B rocket 3.5 18:49:31 10° NE 18:52:55 24° E 18:56:17 10° SSE
Resurs 01 Rocket 2.2 18:49:18 10° SE 18:53:21 36° ENE 18:57:25 10° N
Cosmos 1603 4.0 18:48:45 10° S 18:54:12 46° ESE 18:59:42 10° NE
Meteor 1-22 Rocket 4.3 18:50:29 10° SSW 18:55:48 79° W 19:01:07 10° N
NOSS 3-2 (C) 3.5 18:51:36 10° SW 18:57:43 88° SE 19:04:28 10° NE
Cosmos 1420 Rocket 4.2 18:52:38 10° NNW 18:57:50 52° ENE 19:03:00 10° SE
Meteor 1-24 Rocket 4.4 18:52:31 10° NNW 18:58:02 60° W 19:03:20 10° S
Cosmos 1953 2.4 18:56:42 10° S 19:00:33 51° E 19:04:26 10° NNE
COSMO-SKYMED 1 2.9 18:56:41 10° N 19:01:02 70° WNW 19:05:20 10° SSW
Nadezhda 4 Rocket 4.2 18:56:07 10° N 19:02:10 47° ENE 19:08:06 10° SSE
In-Cosmos 22 4.2 18:56:38 10° N 19:02:28 79° E 19:08:12 10° SSE
ISS -2.4 18:59:55 10° SSW 19:02:49 30° SE 19:05:06 14° E
ERBS 4.3 19:06:31 10° NNW 19:09:05 19° NNE 19:11:06 12° ENE
Cosmos 1092 Rocket 4.4 19:06:14 10° N 19:12:04 41° ENE 19:17:50 10° SE
Cosmos 1674 3.4 19:08:37 10° N 19:12:12 34° ENE 19:15:46 10° SE
Cosmos 1470 3.6 19:09:32 10° SSE 19:12:50 27° E 19:16:08 10° NNE
Cosmos 1076 Rocket 4.0 19:08:53 10° NNW 19:13:12 65° W 19:17:29 10° S
GP-B 4.4 19:10:35 10° NE 19:13:48 19° E 19:15:27 16° ESE
Spot 2 Rocket 3.5 19:09:43 10° SSE 19:14:41 63° ENE 19:19:40 10° N
Cosmos 1766 Rocket 3.9 19:14:02 10° NNW 19:18:24 70° W 19:22:42 10° S
Cosmos 1048 Rocket 4.2 19:13:27 10° S 19:18:31 48° ESE 19:23:32 10° NNE
ATLAS 5 CENTAUR R/B 2.2 19:15:05 10° SW 19:19:53 67° NW 19:25:09 10° NNE
Abrixas 2.5 19:19:50 10° SW 19:22:47 61° SSE 19:24:16 26° E
Cosmos 2151 4.0 19:20:04 10° NNE 19:23:35 25° ENE 19:24:58 21° ESE
Cosmos 1269 Rocket 4.0 19:18:40 10° S 19:23:52 63° ESE 19:29:05 10° NNE
Cosmos-2242 3.0 19:20:13 10° S 19:24:35 85° E 19:29:01 10° N
SJ-6B 3.8 19:24:46 10° S 19:28:41 52° W 19:32:43 10° NNW
USA 215 3.6 19:22:44 10° ENE 19:28:54 43° SE 19:35:04 10° SSW
Cosmos 1634 Rocket 4.4 19:24:42 10° SSE 19:30:23 38° E 19:36:03 10° NNE
Cosmos 158 Rocket 4.3 19:26:26 10° SSE 19:30:50 35° ESE 19:35:16 10° NE
HJ-1C 3.4 19:28:10 10° SSE 19:31:32 84° WSW 19:34:55 10° NNW
FengYun 1-2 T 4.1 19:27:23 10° SSE 19:32:52 72° ENE 19:38:20 10° N
ATLAS CENTAUR R/B 4.0 19:27:38 10° SW 19:33:11 84° NW 19:52:05 10° NE
Cosmos 1346 3.4 19:30:18 10° NNW 19:33:16 65° W 19:36:12 10° S
FREGAT/IRIS 3.8 19:30:37 10° S 19:33:36 45° W 19:36:36 10° NNW
Cosmos 1544 3.1 19:31:17 10° S 19:35:02 89° NW 19:38:49 10° N
TELKOM 3 3.7 19:35:13 10° WNW 19:37:56 46° SW 19:38:25 38° S
METEOR-M 4.4 19:33:04 10° S 19:38:25 73° WSW 19:43:47 10° NNW
Cosmos 1758 4.5 19:41:15 10° SSW 19:45:12 47° WNW 19:49:12 10° N
Cosmos 2034 Rocket 4.5 19:40:06 10° SSW 19:46:19 65° W 19:52:39 10° N
CZ-4B DEB 2.6 19:49:16 40° SSE 19:50:18 74° ENE 19:53:34 10° N
Cosmos 1500 Rocket 3.5 19:46:03 10° N 19:50:31 90° SSE 19:54:59 10° S
SL-16 R/B 4.2 19:45:52 10° WSW 19:50:46 29° NW 19:55:41 10° N
Cosmos 1842 Rocket 3.4 19:48:49 10° S 19:53:09 83° E 19:57:31 10° N
ERS-1 Rocket 3.9 19:55:49 29° ENE 19:56:00 29° ENE 20:00:17 10° N
FENGYUN 3A 3.6 19:51:31 10° SSE 19:56:53 85° ENE 20:02:19 10° NNW
Helios 1A 3.9 19:56:49 10° S 20:00:54 49° W 20:05:02 10° NNW
Cosmos 1328 3.6 20:02:19 10° N 20:06:19 73° E 20:06:52 61° SE
CZ-2D R/B 3.2 20:06:27 38° S 20:07:53 84° WSW 20:11:48 10° NNW
Meteor 1-29 3.9 20:04:52 10° N 20:08:18 49° WNW 20:11:40 10° SSW
Cosmos 1110 Rocket 4.0 20:03:04 10° NNW 20:08:23 67° ENE 20:10:02 43° SE
SL-14 R/B 3.9 20:06:10 10° N 20:09:17 41° NE 20:09:17 41° NE
CZ-4B DEB 4.4 20:10:43 84° ENE 20:10:43 84° ENE 20:14:19 10° N
Cosmos 1627 Rocket 4.4 20:09:10 10° N 20:15:24 79° E 20:19:36 22° SSE
ASTEX 1 3.6 20:11:49 10° N 20:16:43 69° W 20:21:34 10° SSW
H-2A R/B 3.1 20:17:06 40° SSW 20:18:20 64° W 20:22:10 10° NNW
Cosmos 839 Rocket 4.3 20:12:14 10° NW 20:19:56 77° WSW 20:23:23 30° SSE
Cosmos 1943 Rocket 2.2 20:14:47 10° NNW 20:20:22 60° ENE 20:21:11 54° E
ALOS 3.1 20:20:14 11° S 20:24:31 48° W 20:29:04 10° NNW
Cosmos 2369 Rocket 2.8 20:22:18 10° NNW 20:27:48 56° WSW 20:31:02 25° S
Cosmos 2251 Rocket 3.3 20:22:40 10° S 20:27:51 71° ESE 20:33:05 10° NNE
Helios 1B rocket 4.4 20:24:37 10° N 20:28:14 30° WNW 20:31:49 10° SW
Resurs 01 Rocket 3.9 20:26:20 10° SSW 20:29:54 23° W 20:33:30 10° NW
Cosmos 1943 3.4 20:25:12 10° SSW 20:30:48 70° WNW 20:36:27 10° NNE
Aureole 3 4.4 20:25:03 10° N 20:30:22 48° NE 20:30:22 48° NE
CENTAUR R/B 2.6 20:27:27 10° SW 20:33:35 76° NW 20:40:34 10° NE
SL-8 R/B 3.7 20:29:15 10° WSW 20:34:01 71° NNW 20:34:18 69° N
Cosmos 2180 Rocket 4.4 20:34:58 59° E 20:34:58 59° E 20:40:57 10° NNE
Gbstr 26 Del rocket 3.3 20:31:16 10° WSW 20:35:56 85° NNW 20:36:27 72° NE
ISS -1.1 20:36:04 10° W 20:37:47 26° W 20:37:47 26° W
Cosmos 1331 Rocket 4.0 20:34:16 10° NNW 20:39:36 77° WSW 20:40:19 65° S
BREEZE-M DEB (TANK) 3.0 20:31:07 10° WNW 20:41:24 86° S 20:41:39 80° SE
ERBS 4.4 20:42:47 10° NW 20:44:31 27° NW 20:44:31 27° NW
Cosmos 2279 Rocket 3.9 20:48:02 39° S 20:50:31 88° W 20:56:46 10° N
GP-B 4.3 20:47:07 10° NNW 20:51:18 41° W 20:52:57 29° SW
Cosmos 2058 4.0 20:48:39 10° NNW 20:51:47 42° NW 20:51:47 42° NW
Cosmos 1302 Rocket 4.2 20:48:02 10° NNW 20:52:26 63° N 20:52:26 63° N
H-2A R/B 4.2 21:03:10 21° N 21:03:10 21° N 21:04:46 10° N
Envisat 3.6 21:05:36 54° NNW 21:05:36 54° NNW 21:09:33 10° NNW
ATLAS 5 CENTAUR R/B 4.5 21:02:15 10° WNW 21:05:40 18° NNW 21:09:18 10° NNE
Cosmos 2266 Rocket 4.4 21:00:21 10° N 21:05:12 50° NNE 21:05:12 50° NNE
Cosmos 2221 4.4 21:09:42 26° NNW 21:09:42 26° NNW 21:11:56 10° N
USA 215 3.5 21:09:20 36° NE 21:12:06 64° NNW 21:18:32 10° WSW
H-2A R/B 4.4 21:30:01 15° NNE 21:30:01 15° NNE 21:30:56 10° N
Cosmos 1943 Rocket 4.3 21:59:32 10° NW 22:02:43 20° W 22:02:43 20° W
